Location: Bocchiglicro
(39.4167°N, 16.7500°E)
Time: 23:01:13
(UTC+00:00)

Cosmos 2341 Rocket - Pass Details

Date: 07 June 2020
Orbit: 967 x 1005 km, 82.9° (Epoch: 14 July)

Event Time Altitude Azimuth Distance (km) Brightness Sun altitude
Exits shadow 01:07:41 24° 170° (S) 1,942 5.2 -20.2°
Maximum altitude 01:11:41 68° 94° (E) 1,067 4.2 -19.8°
Drops below altitude 10° 01:17:58 10° 12° (NNE) 2,760 7.4 -19.1°
Sets 01:20:30 0° 10° (N) 3,707 8.2 -18.8°
